Theta_e
310 310 310 310 310 310 311 310 310 309 309 308 309 309 308 309 309 308 307 307 308 308 309 309 309 308 308 309 309 309 309 308 308 309 308 308 308 308 307 307 307 306 306 306 307 307 306 307 308 309 309 309 309 310 309 309 309 309 310 310 312 314 316 317 318 317 316 316 316 316 316 317 317 318 318 319 319 319 320 321 323 322 323 323 323 323 324
310 310 310 310 310 310 309 309 310 309 308 308 308 308 307 307 308 307 307 307 307 308 308 308 308 308 308 309 308 308 309 308 308 308 308 308 308 307 308 308 307 307 307 307 307 307 307 307 308 308 309 309 310 310 309 309 308 309 310 312 313 315 316 316 318 318 318 319 319 319 318 318 318 318 317 316 317 318 319 321 322 322 323 323 324 323 324
310 310 310 310 310 309 308 308 308 308 308 307 307 308 307 307 308 308 307 307 307 307 306 307 307 307 308 308 308 308 308 308 308 308 308 308 308 308 308 308 308 307 307 307 307 307 307 307 308 308 308 309 310 310 310 309 309 308 311 313 314 314 315 316 318 319 320 322 321 319 318 318 317 316 316 316 316 317 319 322 322 321 323 324 323 323 326
310 310 310 309 309 308 307 307 307 307 307 307 307 308 307 307 309 309 308 307 307 306 306 307 307 306 307 308 308 308 308 308 308 308 308 308 308 308 308 308 308 308 308 307 307 307 307 307 308 308 308 307 308 310 310 310 309 309 311 313 313 313 314 315 317 318 319 319 317 314 315 316 316 316 316 316 316 316 318 321 322 323 323 322 324 326 325
310 309 309 308 308 308 307 307 306 306 306 307 307 307 307 307 307 308 307 307 307 307 307 307 307 307 307 308 308 307 307 308 308 308 308 308 308 308 308 307 308 307 307 308 307 307 307 307 307 307 307 307 307 309 310 310 309 310 311 312 311 312 313 314 315 316 315 315 314 313 313 314 315 316 316 316 316 316 318 320 322 324 323 321 326 330 326
309 309 309 308 309 308 308 307 306 306 306 307 308 307 307 307 307 307 307 307 308 307 307 307 307 307 307 308 308 307 307 307 307 307 308 308 308 308 308 307 307 307 307 307 308 308 307 307 307 307 307 307 307 308 309 309 309 310 311 311 310 311 312 312 313 313 313 313 313 313 313 313 314 315 315 315 316 317 318 320 320 323 324 324 328 333 331
309 310 310 309 309 308 307 307 307 307 306 307 307 307 307 307 307 307 307 307 308 307 307 307 307 307 308 309 307 307 307 307 307 307 307 308 308 308 308 307 307 307 307 307 308 308 307 308 308 307 307 307 307 307 308 308 310 310 310 310 309 309 311 312 312 312 312 312 312 312 313 313 314 315 315 315 316 317 318 320 321 322 324 325 327 331 330
311 311 311 310 309 308 307 306 307 307 307 307 307 307 308 308 308 308 308 308 308 308 307 307 307 307 308 308 308 308 307 307 306 307 307 307 308 308 307 307 307 307 307 307 308 307 307 307 308 307 308 308 308 308 308 308 310 311 309 309 310 309 310 312 312 312 313 313 313 313 313 314 315 315 315 316 316 317 321 326 328 328 327 327 327 328 329
312 312 311 310 308 307 306 306 307 307 307 307 307 307 307 308 308 308 308 308 309 308 307 307 307 307 307 308 308 307 307 307 306 307 307 307 308 308 307 307 307 307 307 307 308 308 307 307 308 308 308 308 308 308 308 308 309 310 309 309 309 309 310 311 312 313 314 314 314 314 314 314 315 315 316 316 318 322 328 334 336 335 333 331 327 327 332
312 311 310 309 308 307 306 307 308 308 307 308 308 308 308 308 308 308 307 308 309 308 308 308 308 308 308 308 308 307 307 307 307 307 307 308 308 308 308 308 307 307 307 308 308 308 308 307 308 308 308 308 308 308 308 308 308 309 310 309 308 308 309 309 311 313 314 314 314 315 315 317 318 319 318 318 322 329 333 336 337 336 336 335 332 332 337
312 311 310 309 307 307 307 308 308 308 308 308 308 308 308 308 308 308 307 308 309 308 308 308 308 308 308 308 308 307 307 308 308 307 307 307 308 308 308 308 307 307 308 308 308 308 308 308 308 308 308 308 308 308 308 308 308 309 309 309 309 309 308 308 310 312 314 314 314 316 318 320 322 323 321 321 326 332 334 335 333 332 331 332 333 333 334
312 311 310 308 307 307 308 308 308 308 308 309 308 308 308 308 308 308 308 308 308 308 308 308 308 308 308 308 308 308 307 307 308 307 307 307 308 307 307 308 308 308 308 308 307 308 308 308 308 308 308 308 308 308 308 308 308 308 309 309 309 308 308 309 310 311 313 314 315 319 321 322 324 325 325 325 328 330 333 332 329 326 326 327 328 329 329
311 311 310 308 308 308 308 308 309 308 309 309 309 308 308 308 308 308 308 307 308 308 308 308 308 308 309 309 308 308 308 308 308 307 307 307 307 308 308 307 307 308 307 307 307 308 308 309 309 309 309 309 309 308 308 307 307 308 308 309 308 308 309 310 311 312 313 314 316 321 322 322 324 325 324 325 327 329 334 335 329 323 323 324 325 325 326
312 312 310 309 308 308 308 308 309 309 309 309 309 309 309 308 308 308 308 308 309 309 308 308 309 309 309 309 309 308 308 308 307 307 307 307 307 308 308 307 307 307 307 307 308 308 309 309 309 309 309 310 310 310 309 308 308 307 308 308 309 308 309 310 311 312 314 315 316 318 320 323 327 326 323 323 325 326 332 337 332 323 321 322 323 323 324
313 312 310 309 309 308 308 308 309 309 309 309 309 309 309 309 309 309 308 308 308 309 309 308 309 309 309 309 308 308 307 307 307 307 307 307 307 307 307 307 307 307 307 308 308 309 309 308 309 310 310 310 311 311 311 310 309 308 308 309 309 308 309 310 311 312 314 314 316 317 319 325 328 325 321 321 323 323 325 332 333 325 321 322 322 322 322
313 312 311 310 309 308 307 308 308 309 309 309 309 309 309 309 309 309 309 308 308 309 309 308 308 308 309 309 308 307 307 307 306 307 307 307 307 307 306 307 307 307 308 309 309 309 308 309 309 310 310 310 311 311 311 311 311 309 308 309 309 308 310 311 311 312 313 314 315 318 319 323 324 322 320 321 323 323 324 333 336 326 320 321 321 320 322
313 312 311 311 310 309 308 308 308 309 309 309 309 309 309 309 309 309 309 308 308 308 308 308 308 308 308 308 308 307 307 307 307 307 307 307 307 307 307 307 308 308 308 309 310 309 308 309 309 310 310 311 310 310 311 312 311 309 309 310 309 309 311 311 310 312 313 313 315 316 318 321 321 319 320 321 321 322 328 338 337 324 319 319 318 319 321
313 311 311 311 311 310 309 308 308 308 309 309 309 309 309 309 309 309 309 308 308 308 308 308 308 308 308 308 308 308 307 307 308 307 306 307 307 307 307 308 308 308 308 309 310 309 308 309 309 309 310 310 309 310 310 311 312 310 309 310 310 310 311 311 310 311 312 314 315 315 317 320 319 318 320 319 320 326 334 336 328 319 317 317 315 317 320
312 311 311 311 311 311 310 309 308 308 308 308 308 309 309 309 309 309 309 308 309 309 308 308 308 308 308 308 308 308 307 308 308 307 307 307 307 307 307 307 307 308 309 309 310 309 309 309 309 309 310 310 309 309 310 310 311 311 310 310 311 311 312 311 311 311 312 313 314 315 318 319 316 318 319 318 323 331 330 323 318 316 316 315 314 315 317
312 312 312 312 312 312 311 310 309 308 308 308 308 309 309 309 309 309 309 309 309 309 308 308 308 308 308 308 308 308 308 308 308 308 307 308 307 307 308 308 307 308 309 309 309 310 309 309 309 309 309 309 309 309 309 310 311 311 311 312 312 312 313 314 313 313 314 314 314 316 319 318 315 318 319 317 319 322 318 314 316 316 313 312 313 314 313
312 312 312 312 312 312 311 310 309 309 308 308 308 309 309 309 309 309 309 308 308 308 308 308 308 308 308 308 308 308 308 308 308 308 308 308 307 307 308 308 308 308 309 308 309 309 309 309 309 309 309 309 308 309 310 311 311 309 309 311 312 311 312 315 316 315 316 317 317 317 317 316 315 316 317 315 314 314 313 314 316 314 311 310 311 312 311
313 312 312 312 312 312 312 311 309 309 309 308 308 309 308 308 308 308 308 307 308 308 308 307 308 308 309 309 309 309 309 309 308 308 308 308 308 308 308 308 308 308 308 308 308 309 309 309 308 309 309 309 308 309 310 311 312 310 308 310 311 311 311 313 314 313 313 316 316 314 314 314 314 314 314 313 313 312 312 314 314 313 311 310 310 311 311
313 312 312 312 312 312 312 311 310 309 309 309 309 309 308 308 308 307 307 307 308 308 308 308 308 309 310 310 310 310 310 309 309 309 309 308 309 308 308 308 309 308 308 308 308 308 309 309 309 309 309 309 308 309 310 311 311 310 310 310 310 310 310 311 312 311 312 314 314 312 311 312 314 313 312 312 312 312 313 313 313 312 311 310 310 310 310
314 313 312 312 312 312 312 312 311 310 309 309 309 309 308 308 308 308 308 308 307 308 308 309 309 310 311 311 311 311 311 310 310 310 309 309 309 309 309 308 308 308 308 308 308 308 308 309 309 309 309 309 309 309 311 311 310 310 310 309 309 309 311 310 310 310 312 314 313 311 311 312 314 315 314 313 313 313 313 313 312 311 311 311 311 311 310
315 314 313 313 313 313 313 312 312 311 310 309 309 309 309 308 308 308 308 308 307 308 309 310 309 309 310 311 312 312 311 311 310 310 310 309 309 309 309 308 307 308 308 308 308 308 308 309 308 308 309 309 309 309 310 310 310 309 310 310 309 310 311 310 309 310 312 312 312 311 311 313 315 315 314 313 312 312 312 312 312 311 312 312 311 311 311
315 315 314 314 315 315 314 313 312 312 311 310 310 309 309 308 308 308 307 308 308 308 309 309 309 310 310 311 312 312 311 311 310 309 309 310 310 309 309 309 308 308 308 308 308 308 308 308 308 308 309 309 309 309 310 310 310 309 309 309 310 310 311 310 310 310 311 311 311 311 311 314 315 314 313 311 311 311 312 312 312 311 312 312 312 311 311
316 315 315 315 315 315 315 315 314 313 312 311 311 310 309 308 309 308 308 308 309 309 308 309 310 310 311 312 312 311 310 310 310 309 308 309 310 309 309 309 308 308 308 308 308 308 308 308 308 308 309 309 309 310 310 310 310 309 309 309 310 310 310 310 310 311 311 311 311 310 311 312 312 312 311 311 312 312 312 312 312 312 312 313 312 312 312
317 316 316 316 316 316 316 316 315 314 313 312 312 311 310 309 309 309 308 308 308 309 309 309 309 310 311 312 312 310 310 310 310 309 309 309 309 309 309 308 308 308 308 309 309 308 308 308 308 308 309 309 310 310 311 311 310 310 309 310 310 310 310 310 310 310 311 311 310 310 310 310 311 311 311 311 312 312 312 312 312 312 312 312 312 312 311
317 317 317 317 317 317 317 316 316 316 315 313 312 312 311 310 310 309 309 309 309 309 309 309 310 311 311 311 312 310 309 309 310 309 309 309 309 309 308 308 308 308 308 308 308 308 308 308 308 308 309 309 310 310 310 310 311 310 310 310 310 310 309 310 310 310 310 310 310 310 310 310 311 311 311 312 312 313 313 313 313 312 312 312 312 312 311
318 318 318 318 318 318 318 317 317 316 316 315 313 312 312 312 311 310 310 310 310 309 309 309 311 311 311 311 311 310 309 309 309 309 309 309 309 308 308 308 308 308 308 308 308 309 309 309 309 309 309 309 310 310 310 310 310 310 309 309 309 309 309 309 309 309 310 309 309 309 310 310 311 311 311 313 314 314 314 314 314 313 313 312 311 312 311
319 319 319 319 319 318 318 318 318 317 316 316 314 312 312 312 312 311 310 310 311 310 309 309 311 311 311 311 311 310 309 309 308 308 308 308 308 308 308 308 309 309 309 308 308 308 309 309 310 310 310 309 310 310 309 309 310 309 309 309 309 309 309 309 309 309 309 308 309 309 310 310 310 311 312 314 315 315 314 315 314 314 313 312 311 311 311
318 318 318 319 319 319 319 318 318 317 317 316 315 314 313 313 312 311 310 311 311 310 309 311 312 312 311 311 311 311 311 310 309 309 309 309 309 309 309 309 309 309 309 309 309 309 309 309 310 310 310 309 310 310 309 309 309 309 309 309 309 309 309 309 308 308 308 308 309 309 310 310 310 311 312 314 315 315 314 314 314 314 313 312 312 311 311
316 316 317 318 318 318 319 318 318 317 317 316 316 315 315 313 312 311 311 311 311 310 310 311 312 312 312 312 311 311 312 312 311 310 310 310 310 310 310 311 310 309 310 310 309 309 310 310 310 310 310 309 309 310 309 308 308 308 308 308 309 309 309 309 308 308 308 308 308 309 309 309 309 310 312 314 315 315 315 314 314 314 313 312 311 311 311
315 315 316 317 317 318 319 318 318 317 317 317 316 316 315 314 313 312 311 311 311 311 310 310 311 312 313 313 313 312 312 313 313 313 312 312 311 311 311 311 310 310 310 310 310 310 310 310 310 310 310 309 309 309 308 308 308 308 308 308 308 308 308 308 308 308 308 308 308 308 308 308 308 310 311 312 313 314 315 314 314 314 313 312 311 311 311
315 315 315 316 317 318 319 318 318 318 317 317 316 316 315 315 313 312 311 311 311 311 311 310 310 312 314 315 315 314 313 313 313 312 312 312 311 310 311 311 311 311 311 311 311 311 311 311 310 310 310 309 309 308 308 308 308 308 308 308 308 308 308 308 308 308 307 307 307 307 308 308 308 309 310 310 311 313 314 315 315 315 314 313 313 312 312
315 315 316 316 317 318 319 318 318 318 317 316 316 316 315 315 314 312 312 311 311 312 311 311 311 313 314 315 314 313 313 314 313 311 312 312 312 310 310 311 312 312 310 311 313 313 311 310 309 309 309 309 309 309 309 309 308 308 308 308 308 308 308 308 307 307 307 307 307 307 307 307 307 308 308 309 310 313 314 315 315 315 315 315 315 314 313
315 315 316 317 317 319 320 319 318 317 317 316 316 316 315 314 313 312 312 311 311 312 311 311 312 314 314 313 313 312 313 314 314 313 314 313 312 311 311 312 313 313 311 312 313 312 310 309 309 308 308 309 309 310 309 309 309 309 308 308 307 307 307 307 307 307 307 307 307 307 307 307 307 307 307 308 309 310 312 313 314 315 316 316 316 316 315
315 315 316 317 318 319 320 319 317 317 317 317 316 315 315 314 313 313 312 312 312 312 311 311 313 313 312 312 313 314 314 314 314 314 315 313 311 312 312 312 313 313 312 312 312 310 310 310 310 308 308 309 310 310 309 309 309 308 308 307 307 306 307 307 307 307 307 307 307 306 307 307 307 307 307 307 307 308 310 311 314 316 317 317 317 317 316
314 315 316 317 318 319 319 318 317 317 317 317 316 316 315 315 315 315 314 312 312 312 311 312 313 313 313 315 315 315 315 315 315 315 315 314 314 314 313 313 313 313 312 311 311 310 311 311 310 309 308 309 309 309 309 309 309 308 308 307 307 306 306 306 306 306 306 306 306 306 306 306 306 306 306 306 307 307 308 310 314 317 318 318 318 318 317
314 316 317 317 318 319 319 319 318 317 317 317 317 316 315 315 316 316 315 315 315 315 313 313 314 314 314 316 317 316 315 315 316 315 315 315 314 313 313 313 313 312 311 311 311 310 310 310 309 308 308 309 309 309 308 308 309 308 308 307 307 306 306 306 306 306 306 306 306 306 306 306 306 306 306 306 306 307 307 309 312 316 318 318 318 318 318
315 316 317 317 318 319 320 319 318 317 316 316 316 316 314 314 314 315 316 318 319 318 314 314 316 317 316 316 317 317 316 316 315 315 315 315 314 314 314 314 312 312 311 311 310 310 310 310 309 308 308 309 309 308 307 308 309 308 308 307 307 306 306 306 306 306 306 306 306 306 305 305 305 305 305 306 306 306 307 309 311 315 316 317 317 317 317
316 317 317 317 319 320 319 318 318 317 315 315 315 315 313 313 313 315 315 316 317 317 315 315 317 318 317 316 316 317 316 316 315 315 315 315 314 314 314 313 311 311 311 311 310 311 310 309 308 308 308 309 308 307 306 308 309 308 308 307 307 306 306 306 306 306 305 305 306 306 305 305 305 305 305 305 305 305 307 308 311 313 314 316 317 317 317
316 317 317 318 320 320 319 317 316 316 315 315 314 314 313 313 313 314 314 314 314 315 315 315 315 315 315 316 317 317 316 316 316 316 316 315 314 313 313 312 311 311 311 311 311 311 310 309 308 308 309 309 308 306 305 307 308 308 307 307 307 306 306 306 306 306 305 305 306 306 305 305 305 305 305 305 305 305 306 307 309 311 312 315 317 317 317
317 317 317 318 319 318 317 316 314 313 314 314 313 313 313 313 313 313 313 312 312 313 313 312 312 313 315 316 316 317 317 316 315 315 315 314 314 313 312 311 312 312 311 311 311 311 309 309 309 309 309 309 308 305 304 306 308 308 307 307 306 305 306 306 306 306 305 305 305 305 305 305 305 305 305 305 305 305 305 306 307 309 311 313 315 316 317
317 317 317 317 316 315 314 313 312 311 312 314 314 314 313 313 313 314 313 311 311 312 312 310 310 312 315 316 316 316 317 316 315 315 316 315 314 313 312 311 312 311 310 310 311 310 309 309 310 309 309 310 308 305 304 306 307 307 307 307 306 305 305 306 306 306 305 305 305 305 305 305 305 305 305 305 304 304 304 305 306 307 308 310 311 312 313
319 318 317 315 314 312 311 312 312 313 313 313 314 314 314 312 312 313 312 311 310 311 311 310 310 313 316 317 316 316 316 315 315 315 315 314 313 312 311 311 311 310 309 309 309 308 308 309 310 309 309 309 307 304 303 305 306 307 307 307 306 306 305 305 306 306 306 305 305 304 305 305 305 305 305 305 304 304 304 304 304 306 307 308 308 309 310
319 317 315 314 314 312 311 312 314 313 312 312 312 312 313 312 312 312 311 311 311 310 309 310 312 315 317 318 316 315 315 315 315 313 313 313 312 312 311 310 310 309 308 308 307 307 308 309 309 309 309 308 305 303 303 304 305 307 307 306 306 306 304 304 304 305 306 306 305 305 304 304 304 304 304 304 304 304 304 303 304 304 305 306 307 307 308
318 316 314 314 315 313 312 312 313 312 311 312 312 312 312 312 312 312 311 311 310 310 309 310 312 315 315 314 314 314 314 314 312 311 311 311 312 312 311 310 310 310 309 308 307 308 309 310 309 309 309 307 304 304 304 303 304 306 307 307 306 306 305 304 303 304 305 306 306 305 304 304 304 303 303 303 303 303 303 303 303 303 304 305 306 306 307
318 316 315 314 313 313 312 311 311 312 313 313 312 311 312 312 312 311 311 311 310 309 309 309 311 312 311 310 311 312 312 311 311 310 309 310 312 312 311 310 309 309 310 310 309 310 310 310 309 309 308 306 304 304 304 303 304 307 307 307 306 306 305 304 303 303 304 305 306 305 305 304 304 303 302 302 302 303 303 302 303 303 303 303 304 305 305
317 316 314 313 313 313 313 312 312 313 314 315 313 312 313 313 312 311 311 311 310 309 309 309 309 310 309 308 309 310 310 311 311 309 309 310 311 310 309 309 309 309 310 310 310 310 310 309 308 308 307 306 305 305 304 303 304 306 307 306 306 306 305 303 303 302 302 303 305 306 306 305 304 303 302 302 302 302 302 302 302 303 302 302 302 303 304
314 314 314 313 314 314 314 314 314 314 315 316 315 313 312 312 312 312 311 310 310 310 309 309 309 310 309 308 309 309 309 309 310 310 309 309 310 310 309 309 310 310 310 310 310 309 309 309 308 308 307 306 305 305 304 303 304 306 306 306 306 306 304 303 302 302 302 302 303 305 306 305 305 304 303 302 302 301 301 302 302 302 302 302 302 302 302
314 314 314 314 315 315 314 314 314 314 315 315 314 312 311 311 311 311 311 311 311 310 308 307 309 311 310 308 308 309 309 308 309 309 310 310 310 311 311 311 310 310 310 310 309 308 308 308 308 308 307 306 306 305 304 303 303 304 305 305 305 305 304 302 302 302 301 301 301 302 304 304 305 304 303 303 302 301 301 302 302 303 303 302 301 301 301
Wind_Speed
28 28 28 27 27 26 26 25 23 23 22 22 24 19 13 9 6 13 24 21 10 8 7 4 3 4 3 3 2 3 5 7 7 9 10 7 6 5 4 4 3 3 3 2 2 3 2 2 2 1 2 2 2 1 3 6 8 6 4 3 4 4 3 3 5 6 9 11 6 2 2 4 4 2 1 2 2 2 4 5 3 5 10 9 8 9 7
27 28 27 26 26 25 25 24 22 20 19 20 21 17 10 7 7 15 24 20 9 6 4 2 3 4 4 4 6 6 6 8 8 7 8 6 4 3 4 6 5 5 6 5 3 4 3 2 1 1 2 1 1 1 1 4 6 5 3 4 5 3 2 2 3 4 6 7 5 4 4 3 2 1 1 1 2 4 5 5 3 4 8 11 10 8 6
27 27 26 25 25 24 23 23 21 18 16 16 17 13 9 6 4 10 20 23 18 11 5 3 3 4 5 5 7 6 5 8 9 7 8 7 5 2 2 5 6 6 8 5 4 5 4 2 2 2 2 2 2 3 3 2 5 6 7 9 7 4 3 3 4 5 7 6 4 3 1 1 1 1 1 0 2 4 3 2 4 5 6 10 11 7 5
27 26 24 23 24 23 22 22 20 17 15 14 14 11 7 4 3 5 11 19 21 14 8 7 4 3 5 3 5 7 5 5 7 6 7 8 7 4 3 5 6 6 7 5 4 5 4 3 4 3 4 5 3 3 5 5 7 9 11 10 6 4 5 6 6 7 6 3 1 2 4 4 4 3 3 2 1 1 1 1 3 2 2 7 7 4 8
25 24 23 23 22 22 21 20 19 16 14 13 12 9 6 3 3 4 5 7 11 9 10 11 6 3 3 2 3 7 6 4 6 5 5 7 6 4 4 6 6 5 7 5 3 5 5 5 6 6 7 6 5 5 6 6 9 10 9 7 5 4 6 8 9 11 12 10 7 6 7 8 8 8 8 6 2 2 3 5 3 3 4 6 2 1 8
24 22 22 22 21 20 21 19 16 14 13 13 11 9 7 4 3 4 4 3 4 6 7 9 7 4 3 1 3 6 6 6 6 4 4 5 4 3 3 4 6 6 6 4 3 5 5 5 5 5 5 7 7 7 7 8 9 9 7 4 3 4 7 8 9 12 14 13 11 8 8 9 10 11 12 11 8 6 6 8 8 5 5 6 6 8 8
23 22 23 22 20 20 20 19 15 12 11 12 11 8 7 6 3 3 5 3 2 3 4 5 5 5 4 3 3 6 6 6 5 4 4 4 3 3 2 4 7 8 6 3 3 4 5 5 5 5 6 8 7 7 7 7 7 6 6 4 3 4 6 7 9 12 14 15 11 9 10 12 12 13 13 13 11 9 9 9 11 11 10 9 12 14 11
24 23 23 21 20 18 17 17 15 12 10 10 10 8 7 6 3 3 4 2 1 1 2 3 3 4 4 3 4 6 6 6 6 5 4 3 0 2 3 5 7 8 7 4 4 5 5 7 8 7 8 8 6 5 6 6 4 4 4 3 3 4 4 5 7 9 12 13 11 10 11 12 13 13 13 12 12 10 9 9 8 9 11 11 13 15 11
24 24 22 21 19 17 15 13 12 11 9 8 8 8 7 6 5 3 3 2 1 1 2 3 2 3 3 4 4 6 6 6 8 6 3 4 3 2 5 8 7 6 6 6 7 7 8 10 13 13 12 12 10 8 7 7 5 5 5 4 3 4 5 6 5 7 8 6 5 7 8 10 13 15 13 13 11 7 5 4 3 3 6 8 9 8 5
25 24 22 19 17 15 14 12 10 10 8 7 5 5 6 5 5 4 2 2 2 2 2 3 3 3 3 4 5 5 5 6 8 5 2 2 3 3 6 9 8 5 6 7 8 10 12 16 19 20 19 20 20 18 17 16 12 8 7 6 5 5 6 5 5 6 6 3 2 4 5 8 11 12 12 14 11 7 5 2 3 3 2 5 5 3 5
25 24 21 18 15 14 13 11 9 8 6 5 4 4 4 5 5 4 2 1 2 2 2 3 4 3 5 5 5 5 5 6 6 4 3 3 5 5 8 10 7 4 6 9 11 15 19 23 25 25 24 25 26 24 24 23 20 16 11 8 7 8 7 5 4 5 5 4 4 4 7 8 5 2 6 12 11 8 7 5 6 6 4 4 5 7 10
25 23 19 16 14 13 11 9 8 6 5 4 4 4 4 3 4 3 1 1 2 2 2 3 3 5 7 7 6 5 6 7 6 6 7 9 10 10 9 6 5 4 8 13 18 20 21 21 21 20 21 22 24 24 23 21 20 21 18 13 9 8 7 6 4 4 6 6 5 6 8 6 1 6 4 5 5 6 10 11 10 9 10 11 10 11 13
24 21 17 14 14 13 11 9 8 6 5 5 5 5 4 2 2 1 1 1 1 1 3 5 5 6 6 7 7 7 7 9 8 7 8 9 9 9 7 4 6 9 14 18 19 17 13 11 11 11 12 13 14 17 19 19 19 20 20 17 13 10 7 6 4 5 5 5 6 8 3 1 2 3 7 4 2 2 7 10 10 12 12 12 11 13 14
22 19 16 15 14 12 10 8 7 5 5 5 5 5 4 2 2 3 2 2 1 3 4 5 5 4 6 8 8 8 8 9 8 5 5 6 8 9 8 7 10 13 15 15 12 8 5 5 7 7 6 5 5 6 9 14 17 18 18 17 15 11 8 6 5 5 5 6 7 5 3 3 6 3 5 5 3 4 2 4 6 10 13 12 12 13 15
20 18 17 15 13 11 8 6 5 5 5 5 6 5 5 4 3 4 3 2 2 3 3 2 4 5 7 8 8 7 7 8 7 5 5 5 7 8 9 11 13 12 10 8 5 2 3 4 6 6 5 4 4 4 3 4 9 16 18 16 14 13 10 7 6 5 5 7 7 5 4 4 5 2 5 6 6 7 6 3 4 8 13 15 14 13 16
19 18 17 15 13 11 9 6 4 5 4 5 6 4 3 3 2 4 5 3 1 1 1 2 5 6 6 7 6 6 6 6 7 6 3 2 5 9 13 14 11 7 5 5 3 2 3 4 4 6 5 4 4 3 2 2 2 9 14 15 15 14 9 5 5 4 4 6 7 6 5 3 2 4 7 8 8 9 7 6 2 6 14 18 17 15 17
18 17 16 15 14 12 11 8 5 4 3 4 5 3 2 2 2 3 4 4 3 3 4 4 5 5 5 4 4 4 4 5 5 4 3 5 8 11 15 16 10 4 5 5 2 1 4 4 4 6 5 3 3 3 2 2 2 7 11 14 14 12 7 5 6 6 5 7 7 5 4 1 4 7 10 12 12 8 6 8 2 7 13 17 18 17 18
17 16 15 15 15 14 13 11 6 3 1 2 3 3 1 1 2 2 4 4 3 3 3 4 5 6 5 5 4 4 3 4 4 3 5 7 6 8 13 13 7 4 6 6 3 3 5 4 3 6 5 2 2 3 2 2 4 8 12 11 10 8 6 5 7 7 7 9 8 5 4 2 6 11 13 13 10 4 5 5 1 8 12 17 20 20 20
15 14 13 14 15 16 15 13 9 4 1 1 1 2 2 1 1 2 3 4 4 4 6 9 10 9 7 6 6 4 4 5 5 4 4 3 4 10 13 6 2 4 6 5 3 3 4 4 2 3 4 2 1 2 4 3 2 7 11 11 7 7 6 4 6 6 6 7 7 6 3 4 11 15 11 9 4 3 2 2 4 8 14 19 20 21 23
14 13 12 12 13 15 15 14 12 7 2 2 1 0 1 1 1 1 2 4 5 7 9 9 7 7 8 8 7 6 5 5 5 5 3 3 6 12 8 1 1 5 5 4 4 2 3 5 4 2 3 4 2 2 4 3 5 6 5 6 3 3 4 4 4 4 4 6 6 6 3 6 16 15 7 6 4 1 3 6 6 10 17 20 20 22 26
13 12 11 11 12 13 14 14 13 10 5 2 2 1 0 1 1 0 1 3 4 6 6 6 7 9 9 9 9 9 9 8 6 5 6 7 7 7 4 2 6 5 3 3 4 2 2 4 3 2 3 4 3 5 7 4 6 7 3 2 2 1 1 2 3 2 3 5 4 1 2 6 13 10 3 4 4 5 7 8 8 11 18 20 21 24 29
12 11 11 11 11 12 12 13 12 11 8 5 3 2 1 0 1 1 1 3 5 8 7 7 8 6 5 5 6 6 8 9 8 8 9 9 7 5 4 6 8 4 0 2 3 3 3 4 3 3 4 3 3 6 7 4 4 5 4 3 3 3 4 4 2 0 2 3 0 3 6 8 6 2 3 4 3 4 9 9 9 13 16 18 21 25 30
11 11 10 10 11 11 11 12 12 10 9 7 5 3 2 1 1 3 3 4 8 10 7 4 4 4 4 5 5 4 5 6 7 9 10 8 7 6 7 7 6 4 2 4 5 5 5 5 3 3 3 3 3 4 4 4 3 3 4 2 1 4 7 6 4 3 4 3 2 6 10 12 6 4 4 3 2 4 9 10 11 14 15 17 21 24 28
11 10 9 10 11 11 10 11 11 11 10 8 6 4 3 2 3 4 4 5 7 7 4 2 3 4 6 8 8 6 6 6 6 7 8 9 8 6 4 3 4 4 7 11 12 10 8 6 4 3 3 4 4 3 2 3 3 3 4 2 1 4 6 5 3 4 4 2 3 9 15 14 5 6 4 1 4 8 13 14 15 14 13 15 20 22 25
11 10 9 10 11 11 11 10 10 9 10 9 8 6 5 4 3 3 3 4 5 4 3 2 3 4 7 11 12 10 9 9 8 6 8 10 10 7 5 5 7 9 13 17 18 14 8 4 3 3 3 4 6 5 3 3 4 5 5 5 3 6 6 5 3 4 4 2 5 14 18 10 3 5 2 9 13 17 20 20 19 16 13 14 18 20 23
11 10 9 9 11 12 12 11 10 9 8 8 8 7 6 5 4 3 4 5 4 2 2 2 3 5 7 11 13 13 11 11 7 5 7 8 9 9 9 10 10 12 14 17 16 12 6 3 3 3 2 5 7 6 3 4 5 3 4 7 8 7 6 6 5 4 3 2 7 16 16 3 4 3 13 18 21 23 23 21 20 18 15 16 17 19 21
10 10 9 9 11 12 12 12 11 10 8 7 6 7 6 6 5 5 5 5 4 2 1 3 5 7 7 10 14 15 13 11 9 3 2 3 4 4 5 6 9 12 13 12 10 8 5 3 4 3 3 6 8 6 4 4 4 1 4 10 12 8 5 7 6 4 4 5 9 13 9 4 8 17 23 23 24 24 23 22 21 18 15 16 19 20 20
9 9 9 9 10 11 12 12 12 11 10 7 5 5 5 6 6 5 6 6 4 2 3 6 8 7 6 8 14 16 13 12 11 7 4 2 2 1 3 4 6 8 8 6 5 5 5 4 5 5 5 8 8 5 5 6 3 2 6 13 15 12 8 8 8 5 6 10 14 14 10 10 16 22 24 25 26 25 24 23 22 19 15 15 18 21 21
9 9 9 9 9 10 11 11 11 11 11 9 6 3 3 5 6 6 6 6 5 4 6 7 6 5 5 8 12 14 13 12 12 11 9 7 6 5 5 6 7 8 9 7 4 4 4 5 5 6 8 11 9 5 5 6 4 5 12 19 21 20 18 16 13 9 9 13 17 17 14 14 18 21 23 24 23 22 24 23 22 19 17 15 16 18 20
9 9 10 9 9 9 9 9 10 10 11 10 8 4 2 4 6 6 6 6 6 5 5 4 3 3 4 7 10 11 12 12 12 12 12 11 10 9 9 9 9 10 10 9 6 4 4 5 7 10 13 15 9 3 4 6 4 7 17 26 27 28 27 24 19 15 14 17 20 18 15 16 18 20 21 19 16 17 20 21 19 17 15 14 14 16 17
10 11 11 11 10 10 9 9 9 9 10 10 8 5 2 2 5 6 5 6 6 5 3 3 3 3 3 5 6 8 10 12 12 12 12 12 11 9 8 7 8 8 8 8 7 6 5 6 8 11 15 15 9 3 4 7 6 9 20 27 27 27 27 25 23 21 20 22 23 18 14 16 18 18 16 15 13 13 16 18 16 14 12 12 13 14 15
10 11 11 11 11 10 9 8 7 8 8 8 7 5 3 3 5 5 5 5 5 4 2 2 3 2 2 2 2 3 4 6 7 8 8 7 6 5 5 5 7 8 7 6 4 4 6 7 7 9 12 14 8 2 4 8 8 11 21 26 25 25 24 23 24 24 23 24 23 18 16 21 24 20 16 14 12 12 13 14 15 13 11 11 13 13 12
11 12 13 12 11 9 8 7 7 7 7 7 6 5 4 3 4 4 4 4 4 3 2 2 1 1 2 3 3 3 3 2 0 1 2 2 1 2 3 4 5 6 7 5 3 4 6 6 6 7 10 11 7 2 3 7 11 17 23 26 26 25 24 22 24 26 26 26 23 18 17 22 24 20 16 14 12 11 11 12 12 13 12 11 11 11 10
11 13 14 13 11 9 7 6 6 6 6 6 6 5 5 4 3 3 3 3 4 3 2 2 1 1 2 3 3 3 3 3 2 1 0 0 2 3 3 4 3 3 4 4 3 3 5 5 4 5 7 8 6 3 4 9 16 21 23 24 25 25 24 23 25 27 27 26 25 21 20 22 23 22 21 19 15 13 11 10 10 11 12 12 12 11 10
11 13 14 14 11 9 7 5 5 6 6 6 6 6 4 3 4 4 3 3 3 2 1 1 1 1 2 2 1 3 4 3 2 2 1 1 3 4 3 3 2 1 3 4 2 2 3 4 4 4 6 6 5 3 4 11 19 22 22 24 26 26 24 23 26 27 26 25 25 25 24 25 26 26 24 22 21 18 14 11 9 8 10 12 13 14 14
10 12 14 14 11 8 6 5 5 5 6 7 7 6 4 4 4 5 5 5 4 3 2 2 1 2 2 2 2 3 4 3 2 3 3 2 3 3 2 1 1 1 2 2 1 1 3 4 3 4 5 5 4 5 8 13 17 19 21 24 25 25 23 23 25 26 25 23 24 26 26 26 27 26 25 24 22 19 16 15 12 10 9 10 11 12 15
10 13 14 13 11 8 5 4 6 7 8 8 7 5 3 3 3 4 5 5 6 5 4 3 2 3 4 2 2 3 3 1 1 2 2 2 1 2 2 1 1 1 1 1 0 1 3 4 3 4 5 5 6 9 13 15 15 16 18 21 24 25 24 23 24 25 24 22 23 26 27 27 27 27 26 26 24 20 18 17 16 13 11 10 9 9 11
10 13 14 13 10 5 3 5 8 9 8 7 6 4 2 1 2 3 4 4 4 5 5 5 4 5 5 3 2 3 2 1 1 2 1 3 3 1 1 1 1 1 1 0 1 1 2 2 2 2 5 7 10 13 15 15 14 14 16 19 23 24 23 22 23 25 24 23 24 28 28 28 28 28 27 26 25 22 19 17 16 14 12 11 10 9 8
11 13 14 12 8 5 5 7 9 8 7 5 3 2 1 2 2 2 2 3 3 3 5 5 5 6 6 4 3 3 2 2 1 1 2 3 3 1 1 2 1 1 1 0 1 0 0 1 1 2 4 6 11 15 16 14 13 15 16 18 21 23 22 21 22 22 22 22 22 25 26 26 26 27 27 26 25 23 22 20 17 14 12 13 12 9 7
11 13 13 11 8 7 8 8 8 6 4 3 2 1 2 2 2 1 1 1 2 3 4 4 5 5 6 5 4 3 3 3 2 1 1 2 1 1 2 2 1 1 1 0 1 0 0 1 2 3 3 5 11 16 16 13 12 14 16 17 20 22 22 21 20 19 20 19 20 21 24 25 24 24 26 27 26 25 24 23 20 15 13 13 13 9 6
12 13 13 11 9 8 7 6 5 4 2 1 1 1 1 1 2 2 1 1 1 2 3 4 3 3 4 5 4 3 3 3 3 2 1 1 2 2 1 1 1 1 1 1 2 2 1 1 2 3 3 8 13 16 16 13 12 13 15 16 18 21 23 23 22 20 20 20 20 21 23 25 25 24 25 27 27 26 26 25 22 19 16 15 14 10 6
13 14 13 11 9 7 5 4 3 3 1 1 1 1 0 1 2 2 1 1 2 3 3 4 4 3 4 5 5 4 3 3 3 2 1 1 2 2 1 1 1 1 0 2 3 2 1 1 2 2 4 10 14 15 14 13 12 12 13 15 16 19 21 22 23 22 22 21 20 20 21 23 24 24 24 25 26 26 28 28 26 22 19 17 14 10 7
14 15 12 9 6 4 3 2 2 1 1 0 1 1 1 1 0 1 1 2 3 3 3 4 5 6 6 5 4 3 3 3 3 2 2 1 1 1 1 1 0 1 1 3 2 0 1 1 1 1 5 10 12 13 13 12 10 10 11 13 15 18 20 20 21 23 24 23 21 19 20 22 22 22 22 23 25 27 30 32 30 25 22 19 15 13 12
13 12 9 6 4 2 2 2 1 1 0 0 0 0 2 2 1 1 2 2 3 3 4 6 7 6 4 3 3 3 2 3 3 3 2 2 1 1 1 1 0 1 2 2 0 1 1 1 0 2 5 8 10 10 11 10 8 9 10 12 14 18 20 19 19 22 24 25 23 20 19 20 22 22 22 23 25 27 30 32 31 28 24 20 19 18 16
10 8 6 4 2 1 1 1 1 0 1 1 1 1 2 2 2 1 3 4 5 6 9 11 9 5 3 3 3 2 2 2 2 2 1 1 1 1 0 1 1 1 1 1 1 1 1 1 1 3 5 7 8 8 9 9 7 6 8 10 12 16 18 17 17 19 21 23 24 23 21 20 21 21 23 23 24 26 29 31 31 31 28 24 23 22 19
8 6 3 2 1 1 0 0 1 0 1 2 3 4 4 4 4 6 7 8 9 11 12 12 9 4 3 3 2 2 2 2 2 1 1 1 1 1 1 2 1 1 1 1 1 2 2 1 2 4 5 6 6 6 9 9 7 5 5 7 10 13 16 16 16 17 18 20 22 23 24 23 22 21 21 22 23 25 28 30 31 31 30 29 27 25 22
7 4 2 1 2 1 1 2 2 3 4 6 8 8 7 7 9 10 10 10 10 11 11 9 6 3 2 2 2 1 1 2 1 1 0 1 0 1 2 1 1 1 1 1 0 2 2 2 3 3 4 5 5 6 9 11 9 5 3 5 7 10 13 15 16 16 17 18 19 21 23 25 25 23 22 22 22 23 25 26 28 30 30 29 28 25 23
6 4 2 1 1 2 2 2 4 7 10 11 13 13 12 11 12 12 10 9 10 10 9 5 3 2 1 1 1 1 1 1 1 0 1 1 0 1 1 1 1 1 2 1 0 1 2 3 3 2 2 4 6 7 10 13 11 6 2 3 6 8 9 12 14 15 15 16 16 17 19 22 24 25 25 24 23 23 23 24 25 27 28 28 27 27 26
6 4 3 2 3 4 5 5 6 8 12 14 14 13 12 13 15 14 10 7 8 9 6 2 2 1 0 0 1 1 1 1 1 0 1 1 1 0 0 1 2 2 2 2 1 1 3 4 2 1 2 3 6 9 11 12 11 7 3 4 6 7 8 10 12 13 14 14 13 13 15 18 20 22 24 24 23 21 22 23 24 24 25 26 26 27 27
6 6 5 5 4 4 5 5 5 5 8 13 15 11 8 10 14 13 9 7 8 7 4 1 1 1 1 1 1 1 1 1 1 1 1 0 1 1 1 1 2 2 2 2 3 3 3 3 2 1 1 3 6 8 10 11 9 6 4 5 6 7 8 9 11 12 13 13 11 10 11 14 16 18 21 22 22 21 22 22 22 21 22 23 23 23 24
5 5 6 7 7 7 6 7 6 6 8 13 15 11 7 8 11 11 10 11 10 6 3 1 1 2 1 1 1 1 1 1 0 1 2 1 1 2 2 1 1 2 2 3 3 3 3 3 3 1 1 3 4 6 8 9 8 6 4 5 5 5 7 9 11 12 12 13 13 11 9 9 11 14 16 18 20 22 22 21 19 19 20 22 22 21 20
4 4 5 8 10 11 11 11 11 12 14 16 14 10 8 9 10 10 11 12 9 4 3 2 2 1 1 1 2 1 1 1 1 2 2 1 2 2 2 1 1 2 3 4 4 3 3 3 3 2 0 2 3 5 7 8 7 6 5 5 4 5 6 8 10 11 12 13 14 14 12 10 9 10 12 15 17 19 20 19 18 17 18 20 22 23 21
Wind_Direction
344 344 343 342 341 341 343 351 359 357 352 356 2 9 22 31 22 6 6 8 24 72 79 36 41 62 9 349 345 354 23 23 15 17 21 25 23 29 55 49 47 53 12 325 310 335 310 252 245 258 254 291 325 58 54 355 330 320 307 308 328 305 256 253 266 269 276 273 270 289 235 188 176 208 301 341 326 327 284 273 281 232 218 212 224 244 246
345 344 342 341 340 342 347 354 360 358 358 4 5 6 18 22 21 22 18 16 30 73 66 26 57 41 360 24 35 35 47 32 20 28 33 30 16 18 45 32 21 20 1 341 322 336 327 265 267 290 288 339 34 216 90 359 331 318 317 331 339 312 238 231 259 238 231 226 189 151 155 143 141 164 107 67 7 348 298 256 276 264 220 212 224 237 242
345 343 341 340 342 347 351 354 358 1 6 12 9 6 9 8 29 30 26 35 56 77 74 54 75 39 19 44 33 25 50 35 22 38 48 40 25 20 25 2 360 5 353 335 313 322 315 287 310 322 304 325 314 263 235 274 313 306 301 309 314 293 247 235 247 227 209 200 186 186 181 68 358 170 169 187 35 6 322 237 232 243 217 218 230 236 237
344 342 341 341 345 350 352 352 357 5 13 19 17 17 17 11 29 16 18 39 54 66 64 50 63 46 25 48 35 19 30 24 15 32 50 43 37 47 34 360 4 12 356 340 312 312 297 280 306 312 303 312 319 281 237 241 288 296 295 301 301 272 257 251 256 260 259 262 286 319 325 313 291 290 282 265 117 72 336 217 227 268 270 235 225 232 248
345 343 343 344 347 349 350 351 357 7 17 23 25 32 41 42 37 7 351 24 37 45 46 36 37 46 18 28 34 19 19 14 7 22 40 35 34 51 52 28 21 10 353 343 316 315 308 294 300 299 301 308 303 286 261 251 280 290 290 293 292 270 260 254 258 263 270 283 291 294 299 289 282 289 287 279 265 216 209 220 253 339 303 248 220 295 261
347 346 346 347 348 347 348 352 360 10 19 28 36 44 49 61 71 33 13 15 27 32 28 16 17 31 24 44 36 17 21 24 12 13 15 15 27 47 58 34 10 353 344 327 297 311 310 295 297 306 311 312 307 300 282 264 274 282 279 281 285 272 264 263 267 269 271 278 282 279 277 271 269 272 275 277 272 243 225 237 255 267 254 263 308 307 285
347 348 347 348 348 346 350 359 11 20 22 28 41 52 55 65 83 42 25 26 30 25 7 357 14 26 19 33 31 11 15 18 8 353 340 346 38 49 26 6 350 337 331 314 285 308 313 302 304 310 304 300 300 297 286 270 264 263 263 266 266 263 264 265 269 274 275 273 271 267 264 266 267 263 262 266 264 254 247 248 248 241 235 250 276 285 285
348 349 348 348 348 350 358 8 16 22 22 31 46 56 55 54 52 23 7 356 343 13 1 351 17 40 30 25 20 7 9 8 356 339 312 296 334 50 6 350 334 319 313 296 265 274 291 289 287 290 290 289 282 273 274 265 239 231 244 259 254 248 268 289 287 278 272 270 267 257 251 257 264 263 258 255 255 253 249 252 251 241 238 239 250 268 276
349 349 348 347 350 359 10 16 17 18 20 29 44 50 46 41 38 21 357 350 6 40 28 1 12 55 37 15 11 5 5 3 346 328 293 268 268 320 338 335 325 304 290 279 271 276 280 275 275 276 274 271 265 258 254 250 241 233 235 244 243 243 271 299 297 278 270 268 263 256 255 259 262 260 254 245 242 238 228 244 270 252 244 238 233 247 274
350 349 348 350 357 9 20 25 21 17 17 20 26 29 27 23 22 16 4 359 12 21 19 7 16 31 9 359 2 354 349 351 343 337 335 252 253 294 319 319 317 297 280 283 293 296 288 281 279 277 269 263 259 254 249 246 248 246 243 249 249 250 273 286 274 270 271 260 262 280 274 262 256 249 231 221 217 203 184 169 26 18 285 247 233 263 339
350 348 350 359 8 14 21 24 19 13 13 11 1 353 355 358 357 357 351 346 20 29 17 9 16 6 348 348 352 345 336 338 338 334 323 293 282 293 302 301 295 276 278 294 305 303 295 289 284 275 265 259 256 252 246 243 241 239 239 246 244 241 253 263 262 266 268 278 300 281 247 240 253 281 205 201 194 176 157 107 45 35 18 335 312 331 340
349 348 353 3 7 6 8 9 1 358 357 342 328 327 334 341 342 341 337 345 6 16 352 343 328 318 330 337 334 333 330 324 320 306 291 288 291 295 293 281 262 270 299 309 312 312 304 295 286 273 261 257 254 250 246 241 237 233 230 231 235 234 237 243 244 247 267 297 287 235 224 221 86 44 58 174 164 138 127 98 59 37 24 4 342 336 335
349 351 356 359 357 353 355 354 343 332 326 313 309 318 325 320 313 304 223 242 325 319 322 326 311 305 325 334 326 327 327 320 315 298 278 274 281 289 287 264 265 292 309 313 314 314 309 298 290 281 270 263 254 247 242 238 233 228 223 222 226 227 227 232 236 234 253 277 236 216 238 310 181 54 35 44 68 126 141 117 69 39 28 9 341 334 333
351 356 359 357 353 351 356 359 347 328 319 309 302 308 309 276 255 269 235 197 286 295 295 315 329 336 342 340 334 330 327 327 323 294 263 262 268 276 284 291 297 307 312 312 311 310 305 301 298 292 284 271 261 254 241 231 224 218 213 211 213 217 220 224 228 226 232 247 240 240 323 299 205 159 31 10 338 320 249 149 87 47 32 9 343 337 336
356 1 1 356 356 2 12 20 358 336 326 313 305 301 299 284 258 253 239 215 283 295 271 299 343 347 339 339 343 337 329 336 338 309 279 262 262 279 308 321 323 321 313 303 300 291 284 296 303 310 318 310 298 301 289 245 218 208 205 200 199 208 212 208 213 222 232 248 254 253 255 218 182 119 6 343 319 308 293 217 114 52 25 5 351 345 341
1 6 4 1 5 12 19 25 360 339 335 317 310 313 311 298 257 241 242 226 215 282 280 305 318 322 327 334 342 337 329 337 340 326 305 266 289 312 331 341 343 334 308 286 261 248 273 280 298 310 308 300 297 293 289 299 222 189 191 190 192 202 205 197 213 229 233 239 243 240 226 191 85 356 338 335 319 296 268 225 169 38 17 4 356 349 346
6 11 10 9 13 14 13 14 3 346 340 319 318 338 340 289 260 240 233 218 221 273 298 308 305 307 319 329 335 333 322 325 335 334 322 321 317 318 332 347 356 349 320 309 273 277 301 289 300 308 292 254 266 283 268 257 188 162 174 185 190 196 194 192 215 230 242 240 240 252 254 282 6 336 328 333 327 305 242 211 189 30 19 9 360 346 341
12 16 16 15 19 20 14 10 7 356 343 322 325 349 9 283 253 221 223 230 238 266 312 327 312 303 305 308 312 310 299 306 319 319 305 303 303 311 324 335 348 353 340 331 315 319 317 308 307 305 291 224 225 281 301 266 202 164 163 171 181 190 192 200 213 227 246 240 237 260 269 352 351 325 326 337 331 283 207 196 42 22 18 13 0 342 336
15 20 21 19 22 25 21 16 15 18 90 124 15 4 15 336 234 214 237 249 247 261 290 299 299 298 296 290 284 276 277 286 286 299 317 313 315 320 315 300 279 335 336 330 318 309 303 305 307 286 280 279 264 279 291 284 190 150 158 166 173 186 190 198 209 220 241 238 242 260 252 32 353 323 324 358 353 212 175 26 18 26 25 14 356 340 338
19 22 23 22 23 26 27 25 25 32 84 142 152 5 353 298 264 220 245 259 271 285 295 298 299 302 301 293 283 275 272 260 239 245 281 303 322 329 328 276 326 335 335 331 326 312 296 309 313 294 289 296 292 294 301 337 48 75 137 161 163 183 187 194 199 206 226 224 231 249 235 20 356 334 333 32 26 338 18 5 4 32 30 12 350 340 342
21 24 24 22 22 25 29 30 33 38 54 99 136 130 174 256 283 280 246 270 284 289 298 311 314 313 310 304 298 283 270 260 245 249 270 284 304 325 342 325 318 326 355 346 322 298 294 306 302 294 294 287 295 325 326 359 48 42 44 90 70 46 262 233 191 174 224 216 206 262 299 353 358 355 37 80 54 32 20 6 360 22 26 10 349 341 342
22 26 26 24 22 24 28 33 39 45 49 61 88 102 90 302 317 312 304 305 293 286 295 314 320 325 334 330 320 293 273 269 263 260 266 277 286 283 262 275 291 293 324 340 316 294 295 302 302 303 300 295 314 328 337 13 47 23 13 38 64 33 338 296 246 184 283 250 186 4 330 330 346 39 122 119 99 23 5 2 357 5 12 5 350 341 340
24 29 32 30 28 26 27 32 42 51 54 56 65 66 55 44 342 312 310 315 306 302 310 337 348 8 27 10 347 321 303 293 272 260 259 260 265 265 258 266 279 279 289 320 320 304 296 301 305 299 305 322 322 316 344 23 28 6 9 13 9 6 347 319 296 296 281 270 9 2 339 332 316 193 167 124 100 357 348 348 350 356 1 357 349 343 339
26 31 36 37 35 32 29 32 40 49 54 55 54 50 48 23 328 312 313 326 325 320 324 9 20 18 17 7 356 344 337 329 303 273 248 237 244 264 271 278 296 300 314 329 329 313 295 296 300 293 311 336 339 327 348 22 14 353 6 15 290 331 347 339 322 320 302 285 28 359 337 325 294 188 179 343 334 324 326 328 334 343 349 347 345 343 338
26 32 38 39 36 33 31 30 33 41 48 52 47 40 39 35 9 334 327 340 351 352 334 325 354 359 357 2 4 356 342 330 312 276 246 241 248 257 267 294 313 315 321 330 331 321 303 297 308 305 319 347 358 353 345 357 352 346 12 32 345 315 336 350 337 334 328 296 341 343 333 317 190 156 316 326 323 317 315 317 320 324 329 333 336 336 334
26 32 37 35 32 33 33 33 32 32 38 46 44 36 33 34 32 15 352 343 345 348 312 295 332 351 353 1 6 358 346 342 332 283 254 255 259 261 270 291 312 323 328 332 334 330 318 311 322 316 324 347 348 341 330 336 338 340 21 17 345 319 335 351 333 323 333 313 335 343 340 324 158 306 313 317 319 314 308 308 311 315 322 325 326 330 330
27 31 35 33 31 32 33 34 34 30 27 30 35 35 34 34 34 34 21 358 344 357 270 280 322 353 5 6 3 359 357 4 9 352 258 243 255 267 289 310 320 327 332 337 344 349 348 352 351 334 318 326 326 320 318 322 317 330 21 6 357 350 354 357 346 343 359 351 340 339 334 283 286 303 305 309 315 312 305 303 303 308 317 319 317 322 326
23 25 28 29 30 32 32 30 29 28 24 19 18 26 33 37 41 37 24 8 357 352 297 294 319 353 16 9 7 9 12 20 30 39 53 72 76 53 17 346 333 343 354 359 0 1 2 4 350 324 321 334 332 324 328 326 321 31 12 2 3 6 3 360 359 351 341 339 334 329 314 282 283 293 298 304 309 306 299 297 298 300 306 308 309 315 319
15 12 10 11 15 22 26 25 23 21 19 17 16 19 26 31 35 30 16 10 3 340 315 311 331 7 19 10 13 21 27 34 44 52 56 60 66 68 61 50 46 46 42 37 24 2 355 347 331 327 344 351 342 327 344 353 11 24 3 357 1 7 8 8 5 349 333 337 336 328 311 293 292 299 302 303 304 301 294 293 296 298 297 296 300 306 310
7 2 358 355 354 358 6 13 15 14 12 11 15 25 34 23 19 12 5 4 1 349 335 328 342 15 22 21 27 37 48 57 62 65 70 75 81 87 86 74 61 51 43 39 31 10 352 339 336 346 358 359 354 343 355 1 17 10 358 356 0 4 7 8 6 357 347 346 342 332 313 303 308 312 309 305 305 302 296 295 300 300 291 285 289 296 299
0 357 353 348 344 344 349 354 360 5 5 6 10 18 28 1 352 347 348 353 356 358 348 306 302 335 14 33 38 45 57 69 76 79 82 85 86 87 82 60 43 40 36 31 25 14 3 349 344 350 358 1 2 2 355 4 18 1 351 353 358 358 358 1 3 360 355 351 348 342 331 329 334 332 322 316 315 306 296 297 302 300 290 278 275 283 294
357 354 350 345 339 338 342 344 348 355 359 359 359 355 338 334 335 332 332 336 341 355 1 312 310 341 359 359 6 11 28 55 73 77 78 80 78 70 53 35 37 36 22 10 14 12 3 357 350 349 355 358 357 349 2 14 15 351 344 350 356 356 354 356 358 359 360 359 357 352 345 345 348 346 339 335 332 318 306 302 299 294 288 279 271 273 285
359 353 346 341 335 332 336 339 338 342 346 348 347 334 317 316 325 329 330 327 326 339 357 331 316 328 302 302 301 295 299 310 334 68 73 77 49 11 356 355 17 25 16 10 12 358 354 357 352 349 358 1 358 358 15 10 359 348 347 352 357 356 354 355 357 359 1 2 2 359 347 341 344 350 356 359 352 333 319 313 306 295 287 282 277 274 277
353 350 344 339 333 328 328 329 329 332 337 340 340 329 312 300 299 303 312 321 320 318 320 308 297 270 280 286 275 258 265 279 276 256 235 334 309 321 330 326 334 9 11 5 2 353 352 353 346 346 352 350 345 358 14 354 347 348 350 354 356 355 354 356 359 360 359 359 1 1 355 350 353 2 7 7 2 352 339 329 320 308 295 287 281 275 270
345 346 342 337 332 325 317 315 320 326 329 330 331 325 309 284 267 266 271 284 300 310 309 273 266 289 292 286 258 254 272 289 288 261 240 273 286 295 319 330 311 314 342 343 352 5 353 348 353 355 345 338 346 19 7 344 343 348 352 355 357 357 356 357 358 357 356 358 0 2 2 2 4 6 4 1 1 2 359 349 336 319 303 295 288 277 267
341 342 339 337 333 323 310 304 314 321 323 324 323 317 303 276 255 250 251 254 261 271 270 258 247 242 252 286 295 276 278 286 265 247 234 223 256 270 277 288 252 262 303 317 341 17 353 354 9 11 360 358 9 2 347 344 347 350 352 354 357 359 359 358 355 354 355 359 3 5 6 7 6 4 2 360 360 2 3 0 354 339 317 306 298 286 273
338 338 337 336 333 323 302 297 312 318 319 318 316 312 303 278 257 254 252 250 254 253 245 251 261 232 218 235 282 271 269 270 237 243 227 179 208 268 275 239 246 270 274 287 28 11 356 3 25 36 29 19 355 344 348 354 356 353 352 356 0 3 3 1 359 357 357 0 5 7 9 10 8 5 2 1 2 3 3 0 358 353 336 320 309 295 280
335 334 334 335 334 324 301 304 314 316 317 317 318 323 319 270 255 255 246 238 247 244 231 240 259 235 206 204 254 263 270 289 258 248 205 179 186 226 285 264 280 286 250 294 358 340 355 16 39 42 24 3 348 348 356 1 2 1 1 5 7 7 5 3 3 2 1 1 4 6 7 8 7 5 3 1 2 3 3 0 360 0 354 343 333 317 290
332 330 330 331 329 319 310 312 315 316 316 313 309 305 276 252 249 252 234 221 228 228 220 230 247 230 206 210 262 267 254 259 265 241 199 200 203 199 207 212 232 256 247 287 358 312 18 44 31 26 19 353 343 349 357 2 5 8 8 10 13 14 10 7 7 8 8 6 4 6 8 8 7 6 7 6 5 7 9 10 10 7 0 355 349 332 294
329 327 324 322 321 320 319 319 320 320 314 298 270 249 248 245 236 238 257 253 233 217 215 236 262 248 228 233 259 257 234 246 270 276 242 235 226 201 192 177 167 224 259 344 79 157 92 22 11 24 22 338 331 343 353 1 8 10 9 11 15 17 17 16 13 10 11 11 9 10 13 14 12 11 12 14 15 15 15 18 22 21 8 358 357 351 324
325 323 320 317 318 321 322 321 324 321 301 262 263 262 242 254 258 254 265 301 284 254 243 250 265 260 235 232 235 230 233 246 256 258 257 226 200 208 211 141 159 229 286 96 141 168 182 21 28 30 355 327 330 341 350 357 6 11 11 12 14 17 20 22 19 14 12 12 12 14 18 19 19 16 15 18 22 22 20 24 31 35 27 14 9 12 21
322 322 320 316 315 321 323 320 323 325 308 282 327 334 286 296 295 279 235 240 277 299 286 259 262 287 282 260 245 233 227 225 221 219 223 199 204 225 249 137 178 274 355 132 152 171 201 24 45 27 328 327 336 343 346 351 3 14 13 11 14 17 19 20 20 18 16 13 13 15 18 20 21 19 18 20 23 27 29 31 34 39 41 34 25 31 54
321 322 321 315 310 320 328 314 306 323 339 66 36 356 319 308 295 232 250 259 260 264 269 272 288 303 299 273 243 225 220 214 210 212 216 197 187 202 202 189 233 16 117 151 164 131 82 74 58 328 318 332 344 347 345 348 4 20 18 15 16 18 17 17 20 22 21 19 17 17 19 21 21 20 20 22 25 29 35 36 36 38 45 49 48 53 66
321 320 318 310 299 314 330 311 299 346 357 112 107 287 294 303 289 210 259 277 264 260 283 300 307 308 290 240 218 215 218 217 214 212 207 185 173 199 216 206 114 102 137 154 91 50 100 110 270 291 321 344 353 353 348 351 6 21 21 18 18 19 18 17 20 24 25 23 21 20 21 23 23 22 22 24 27 30 35 38 37 37 42 52 60 65 72
319 314 313 311 299 299 321 314 305 302 265 237 181 186 250 293 294 239 263 284 285 289 304 312 310 296 253 226 230 227 210 208 214 209 188 178 194 222 227 86 90 130 147 76 38 38 76 69 279 291 326 349 357 358 357 359 8 19 22 21 21 21 20 18 20 25 27 24 23 22 22 22 23 24 24 25 28 33 37 40 41 39 39 43 51 59 66
312 305 311 322 296 280 261 300 338 7 188 214 225 223 231 257 268 268 275 285 289 296 307 311 304 278 225 219 236 229 206 210 214 185 181 204 209 170 108 90 78 69 79 74 25 345 339 312 274 290 327 354 7 11 10 9 8 16 28 27 24 24 25 23 22 26 29 28 26 26 26 24 24 25 25 25 27 32 38 42 45 45 44 43 44 48 58
303 295 292 286 277 261 209 224 255 260 249 251 260 266 270 275 281 286 290 292 296 306 313 308 289 257 223 231 246 231 205 217 215 156 162 252 199 115 118 130 109 90 120 160 299 335 314 275 270 292 336 4 18 23 20 14 6 4 32 35 24 24 30 31 29 29 32 32 31 29 28 27 26 27 28 30 29 30 33 40 45 48 50 51 50 47 50
286 273 268 267 228 201 212 255 272 280 283 281 278 278 280 281 285 294 301 298 301 314 323 307 261 231 212 231 248 230 193 223 231 169 44 18 53 90 75 96 144 157 176 193 239 327 258 253 274 318 359 9 14 21 22 17 10 2 22 35 18 15 25 33 34 33 33 34 34 31 29 29 29 30 32 34 34 32 33 38 44 48 51 54 56 55 53
268 246 244 257 248 247 266 280 284 291 297 295 288 282 282 287 293 301 307 303 307 321 331 313 251 244 246 300 287 270 276 311 330 349 24 52 127 153 106 164 190 200 197 183 168 200 223 235 266 344 24 16 12 15 19 19 16 13 16 17 8 5 14 25 31 34 33 32 32 31 30 31 32 34 36 37 36 36 36 39 42 47 50 52 55 59 60
259 242 240 250 259 267 278 285 283 287 297 300 300 301 303 300 301 307 312 307 307 320 335 332 313 14 39 10 343 326 313 354 3 285 276 294 133 170 208 213 211 204 183 173 179 187 194 207 240 323 39 32 14 10 14 17 17 16 14 8 3 5 13 18 22 26 28 28 28 29 31 32 33 34 38 40 40 40 42 43 41 42 46 50 52 56 60
251 243 241 245 254 265 276 283 286 285 287 294 303 315 327 315 312 323 329 316 309 320 355 2 349 34 61 3 341 349 344 345 319 273 276 258 168 194 226 231 212 197 182 172 172 174 182 199 217 229 56 37 15 9 16 18 13 3 1 4 3 7 15 18 17 18 21 24 25 26 28 34 35 35 38 42 44 44 44 45 44 43 46 49 51 53 57
239 253 261 262 267 274 277 278 281 288 293 296 302 314 322 313 310 320 326 321 320 344 21 343 324 19 44 4 353 351 316 286 272 268 261 219 193 211 233 241 216 205 198 193 191 198 205 205 203 205 324 13 9 14 22 23 10 354 353 6 16 17 17 19 22 25 27 29 30 28 23 23 32 37 39 43 48 49 46 45 45 46 48 50 52 55 59